Location: Fort Wayne
(41.1310°N, 85.1290°W)
Time: 03:43:54
(UTC-04:00)

OPAL - Visible Passes

Search period start: 29 May 2016 00:00
Search period end: 08 June 2016 00:00
Orbit: 744 x 795 km, 100.2° (Epoch: 27 May)

Date Brightness Start Highest point End Pass type
(mag) Time Alt. Az. Time Alt. Az. Time Alt. Az.
29 May 9.8 01:23:12 10° ENE 01:25:30 13° E 01:25:30 13° E visible
29 May 7.5 02:59:44 10° NNE 03:04:58 77° WNW 03:05:47 62° SW visible
29 May 9.8 04:41:39 10° NW 04:42:56 11° NW 04:44:14 10° WNW visible
30 May 7.9 02:24:26 10° NNE 02:29:31 50° ESE 02:29:54 49° ESE visible
30 May 9.2 04:04:05 10° NNW 04:08:01 22° WNW 04:10:12 17° W visible
31 May 9.1 01:49:45 10° NE 01:53:54 23° E 01:54:01 23° E visible
31 May 8.2 03:27:57 10° N 03:32:55 44° WNW 03:34:19 36° WSW visible
01 Jun 10.0 01:17:40 10° E 01:18:04 10° E 01:18:08 10° E visible
01 Jun 7.4 02:52:20 10° NNE 02:57:37 88° ESE 02:58:26 65° SSW visible
01 Jun 9.7 04:33:19 10° NNW 04:35:43 13° WNW 04:38:07 10° W visible
02 Jun 8.3 02:17:11 10° NNE 02:22:06 41° E 02:22:32 40° ESE visible
02 Jun 8.9 03:56:28 10° N 04:00:45 26° WNW 04:02:50 20° W visible
03 Jun 9.3 01:42:46 10° NE 01:46:25 19° E 01:46:39 19° E visible
03 Jun 7.9 03:20:30 10° N 03:25:35 54° WNW 03:26:56 42° WSW visible
04 Jun 7.5 02:45:00 10° NNE 02:50:14 72° ESE 02:51:03 60° SSE visible
04 Jun 9.5 04:25:23 10° NNW 04:28:29 16° WNW 04:31:20 11° W visible
05 Jun 8.6 02:09:58 10° NE 02:14:41 33° E 02:15:09 32° ESE visible
05 Jun 8.7 03:48:53 10° N 03:53:28 32° WNW 03:55:27 24° WSW visible
06 Jun 9.6 01:35:56 10° ENE 01:38:56 15° E 01:39:15 15° E visible
06 Jun 7.6 03:13:03 10° N 03:18:15 66° WNW 03:19:33 48° SW visible
07 Jun 7.8 02:37:40 10° NNE 02:42:51 58° ESE 02:43:38 52° SE visible
07 Jun 9.3 04:17:37 10° NNW 04:21:14 19° WNW 04:23:56 13° W visible
